This is the latest recevied weather packets stored in our database for station/object N4DBJ. If no packets are shown the sender has not sent any weather packets the latest 10 day(s).
| Time | Temp. | Humidity | Pressure | Rain* | Wind** | Luminosity | Snow |
|---|---|---|---|---|---|---|---|
| 1778050035 | 17.78° C | 99% | 1004.3 hPa | 0 mm | - | 0 W/m² | - |
| 1778049731 | 17.78° C | 99% | 1004.1 hPa | 0 mm | - | 0 W/m² | - |
| 1778049429 | 17.78° C | 99% | 1003.9 hPa | 0 mm | - | 0 W/m² | - |
| 1778049126 | 17.78° C | 99% | 1004.1 hPa | 0 mm | - | 0 W/m² | - |
| 1778048825 | 18.33° C | 98% | 1004 hPa | 0 mm | - | 0 W/m² | - |
| 1778048521 | 18.33° C | 97% | 1003.8 hPa | 0 mm | - | 0 W/m² | - |
| 1778048217 | 18.33° C | 97% | 1003.4 hPa | 0 mm | - | 0 W/m² | - |
| 1778047914 | 18.33° C | 96% | 1003.4 hPa | 0 mm | - | 0 W/m² | - |
| 1778047613 | 18.89° C | 95% | 1003.4 hPa | 0 mm | - | 0 W/m² | - |
| 1778047309 | 18.89° C | 93% | 1003.8 hPa | 0 mm | - | 0 W/m² | - |
| 1778047007 | 19.44° C | 92% | 1003.6 hPa | 0 mm | - | 0 W/m² | - |
| 1778046704 | 19.44° C | 91% | 1003.9 hPa | 0 mm | - | 0 W/m² | - |
| 1778046401 | 20° C | 88% | 1003.3 hPa | 0 mm | - | 0 W/m² | - |
| 1778046096 | 20° C | 86% | 1003.9 hPa | 0 mm | - | 0 W/m² | - |
| 1778045794 | 20° C | 84% | 1004 hPa | 0 mm | - | 0 W/m² | - |
| 1778045493 | 20° C | 84% | 1004.1 hPa | 0 mm | - | 0 W/m² | - |
| 1778045191 | 20° C | 83% | 1004 hPa | 0 mm | - | 0 W/m² | - |
| 1778044889 | 20° C | 84% | 1004.2 hPa | 0 mm | - | 0 W/m² | - |
| 1778044585 | 20° C | 85% | 1004.1 hPa | 0 mm | - | 0 W/m² | - |
| 1778044281 | 20° C | 85% | 1004.4 hPa | 0 mm | - | 0 W/m² | - |
| 1778043980 | 20° C | 84% | 1004.3 hPa | 0 mm | - | 0 W/m² | - |
| 1778043677 | 20° C | 85% | 1004.1 hPa | 0 mm | - | 0 W/m² | - |
| 1778043374 | 19.44° C | 85% | 1004.5 hPa | 0 mm | - | 0 W/m² | - |
| 1778043070 | 19.44° C | 87% | 1004.5 hPa | 0 mm | - | 0 W/m² | - |
| 1778042768 | 19.44° C | 86% | 1004.5 hPa | 0 mm | - | 0 W/m² | - |
* Rain latest hour (hover to see other rain measurements)
** Current wind speed in m/s (hover to see current wind gust speed)